Location: Amanico Ergina Village
(37.7824°N, 122.4366°W)
Time: 21:33:01
(UTC+00:00)

CZ-2C R/B - Pass Details

Date: 29 October 2020
Orbit: 667 x 785 km, 98.2° (Epoch: 24 November)

Event Time Altitude Azimuth Distance (km) Brightness Sun altitude
Rises 13:10:32 0° 357° (N) 3,186 5.6 -16.7°
Reaches altitude 10° 13:13:20 10° 342° (NNW) 2,237 4.7 -16.2°
Enters shadow 13:16:06 20° 308° (NW) 1,635 3.7 -15.7°
